Location: Arcueil
(48.7999°N, 2.3326°E)
Time: 18:39:54
(UTC+00:00)

EO-79 - Pass Details

Date: 22 June 2024
Orbit: 555 x 577 km, 98.0° (Epoch: 18 July)

Event Time Altitude Azimuth Distance (km) Brightness Sun altitude
Rises 02:32:35 0° 23° (NNE) 2,758 ? -9.4°
Reaches altitude 10° 02:34:57 10° 34° (NE) 1,854 ? -9.2°
Maximum altitude 02:38:28 29° 96° (E) 1,041 ? -8.9°
Drops below altitude 10° 02:41:57 10° 157° (SSE) 1,835 ? -8.5°
Sets 02:44:17 0° 169° (S) 2,724 ? -8.3°
